AUA49W LOWW-LPPR

Flight info

Callsign AUA49W
Flight time 3h 1m
Altitude 36000
Route SOVIL DCT SITNI DCT BAGSI DCT MATIG DCT SBG DCT TRAUN/N0352F120 L856 KPT/N0448F360 L856 AKABI/N0447F370 L856 TRA DCT LUTIX DCT BENOT DCT NEMOS DCT NINTU DCT MEBAK DCT REPSI DCT LERGA DCT MINSO DCT NARAK DCT AGN DCT PIPOR L866 PPN DCT MIRPO DCT DGO DCT NEA DCT ZMR L155 ADORO DCT INKIT
Aircraft A320/M-SDE3FGHIRWY/LB1

Departure

Time 2026-05-05 06:11
Airport Vienna International Airport (LOWW)

Arrival

Time 2026-05-05 09:12
Airport Francisco de Sá Carneiro Airport (LPPR)
Time Latitude Longitude Altitude Speed Heading
2026-05-05 05:48 48.11582 16.57225 610 ft 0 kts 26°
2026-05-05 06:06 48.11586 16.57228 610 ft 4 kts 26°
2026-05-05 06:06 48.11611 16.57247 621 ft 4 kts 27°
2026-05-05 06:06 48.11629 16.57277 622 ft 7 kts 66°
2026-05-05 06:06 48.11605 16.57373 622 ft 12 kts 116°
2026-05-05 06:07 48.11571 16.57494 621 ft 12 kts 97°
2026-05-05 06:07 48.11619 16.57547 620 ft 9 kts 356°
2026-05-05 06:07 48.11679 16.57526 621 ft 9 kts 344°
2026-05-05 06:07 48.11741 16.57500 616 ft 9 kts 345°
2026-05-05 06:08 48.11817 16.57500 610 ft 12 kts 38°
2026-05-05 06:08 48.11848 16.57619 616 ft 14 kts 75°
2026-05-05 06:08 48.11858 16.57771 610 ft 16 kts 102°
2026-05-05 06:08 48.11831 16.57873 619 ft 7 kts 124°
2026-05-05 06:09 48.11812 16.57888 615 ft 0 kts 162°
2026-05-05 06:10 48.11811 16.57888 610 ft 1 kts 162°
2026-05-05 06:10 48.11719 16.57929 619 ft 36 kts 164°
2026-05-05 06:10 48.11252 16.58125 616 ft 101 kts 164°
2026-05-05 06:11 48.10407 16.58482 614 ft 149 kts 165°
2026-05-05 06:11 48.09355 16.58930 1106 ft 155 kts 162°
2026-05-05 06:11 48.08330 16.59369 1864 ft 155 kts 167°
2026-05-05 06:11 48.07224 16.59833 2238 ft 176 kts 169°
2026-05-05 06:12 48.05969 16.60260 2571 ft 193 kts 184°
2026-05-05 06:12 48.04727 16.59477 2983 ft 206 kts 224°
2026-05-05 06:12 48.03882 16.57571 3365 ft 231 kts 237°
2026-05-05 06:12 48.02999 16.55435 3934 ft 250 kts 235°
2026-05-05 06:13 48.02023 16.53241 4856 ft 254 kts 234°
2026-05-05 06:13 48.00994 16.51057 5775 ft 259 kts 233°
2026-05-05 06:13 47.99935 16.48854 6667 ft 262 kts 233°
2026-05-05 06:13 47.98880 16.46619 7557 ft 266 kts 237°
2026-05-05 06:14 47.98138 16.44062 8408 ft 273 kts 253°
2026-05-05 06:14 47.97916 16.41222 9288 ft 280 kts 268°
2026-05-05 06:14 47.98030 16.38289 10129 ft 285 kts 270°
2026-05-05 06:14 47.98163 16.35246 10530 ft 306 kts 270°
2026-05-05 06:15 47.98300 16.31955 10808 ft 330 kts 270°
2026-05-05 06:15 47.98437 16.28441 11173 ft 347 kts 270°
2026-05-05 06:15 47.98581 16.24855 11833 ft 353 kts 270°
2026-05-05 06:15 47.98723 16.21180 12571 ft 357 kts 270°
2026-05-05 06:16 47.98866 16.17446 13307 ft 362 kts 270°
2026-05-05 06:16 47.99008 16.13669 13995 ft 367 kts 270°
2026-05-05 06:16 47.99128 16.11133 14428 ft 370 kts 273°
2026-05-05 06:16 47.99442 16.07300 15100 ft 374 kts 274°
2026-05-05 06:17 47.99757 16.03428 15764 ft 377 kts 274°
2026-05-05 06:17 48.00057 15.99538 16433 ft 380 kts 274°
2026-05-05 06:17 48.00362 15.95603 17091 ft 382 kts 274°
2026-05-05 06:17 48.00663 15.91648 17704 ft 385 kts 274°
2026-05-05 06:18 48.00968 15.87650 18299 ft 389 kts 274°
2026-05-05 06:18 48.01267 15.83616 18796 ft 393 kts 274°
2026-05-05 06:18 48.01566 15.79551 19349 ft 395 kts 274°
2026-05-05 06:18 48.01872 15.75456 19907 ft 398 kts 275°
2026-05-05 06:19 48.02184 15.71323 20456 ft 401 kts 275°
2026-05-05 06:19 48.02492 15.67177 20994 ft 403 kts 274°
2026-05-05 06:19 48.02795 15.63004 21526 ft 405 kts 275°
2026-05-05 06:19 48.03102 15.58795 22038 ft 408 kts 275°
2026-05-05 06:20 48.03413 15.54571 22537 ft 411 kts 275°
2026-05-05 06:20 48.03726 15.50298 23038 ft 414 kts 275°
2026-05-05 06:20 48.04036 15.46017 23529 ft 416 kts 275°
2026-05-05 06:20 48.04332 15.41702 23957 ft 418 kts 275°
2026-05-05 06:21 48.04629 15.37420 24361 ft 421 kts 273°
2026-05-05 06:21 48.04737 15.33044 24753 ft 423 kts 270°
2026-05-05 06:21 48.04792 15.28633 25153 ft 425 kts 270°
2026-05-05 06:21 48.04856 15.24201 25563 ft 427 kts 270°
2026-05-05 06:22 48.04923 15.19756 25969 ft 429 kts 270°
2026-05-05 06:22 48.04992 15.15283 26362 ft 431 kts 270°
2026-05-05 06:22 48.05055 15.10794 26737 ft 434 kts 270°
2026-05-05 06:22 48.05120 15.06266 27109 ft 436 kts 270°
2026-05-05 06:23 48.05180 15.01734 27470 ft 438 kts 270°
2026-05-05 06:23 48.05252 14.97168 27808 ft 440 kts 270°
2026-05-05 06:23 48.05313 14.92584 28150 ft 442 kts 270°
2026-05-05 06:23 48.05360 14.87960 28489 ft 445 kts 270°
2026-05-05 06:24 48.05416 14.83324 28820 ft 447 kts 270°
2026-05-05 06:24 48.05459 14.78672 29209 ft 447 kts 270°
2026-05-05 06:24 48.05497 14.74032 29694 ft 446 kts 270°
2026-05-05 06:24 48.05533 14.69402 30155 ft 444 kts 270°
2026-05-05 06:25 48.05572 14.64879 30546 ft 443 kts 270°
2026-05-05 06:25 48.05605 14.60289 30968 ft 441 kts 270°
2026-05-05 06:25 48.05633 14.55708 31402 ft 439 kts 270°
2026-05-05 06:25 48.05664 14.51153 31833 ft 437 kts 270°
2026-05-05 06:26 48.05697 14.46607 32250 ft 436 kts 270°
2026-05-05 06:26 48.05721 14.42086 32660 ft 434 kts 270°
2026-05-05 06:26 48.05742 14.37571 33066 ft 433 kts 270°
2026-05-05 06:26 48.05761 14.33068 33469 ft 432 kts 269°
2026-05-05 06:27 48.05778 14.28582 33876 ft 431 kts 269°
2026-05-05 06:27 48.05814 14.19712 34560 ft 428 kts 269°
2026-05-05 06:27 48.05828 14.15265 34907 ft 427 kts 269°
2026-05-05 06:28 48.05845 14.10834 35256 ft 426 kts 269°
2026-05-05 06:28 48.05855 14.06408 35580 ft 425 kts 269°
2026-05-05 06:28 48.05864 14.01985 35825 ft 426 kts 269°
2026-05-05 06:29 48.05879 13.93096 35872 ft 427 kts 269°
2026-05-05 06:29 48.05892 13.84208 35873 ft 427 kts 268°
2026-05-05 06:30 48.05894 13.75332 35874 ft 427 kts 269°
2026-05-05 06:30 48.05887 13.66508 35868 ft 426 kts 268°
2026-05-05 06:31 48.05871 13.57638 35874 ft 427 kts 268°
2026-05-05 06:31 48.05426 13.48820 35877 ft 426 kts 261°
2026-05-05 06:32 48.04675 13.40044 35877 ft 426 kts 261°
2026-05-05 06:32 48.03930 13.31269 35875 ft 426 kts 262°
2026-05-05 06:33 48.03175 13.22497 35882 ft 425 kts 261°
2026-05-05 06:33 48.02423 13.13737 35877 ft 425 kts 261°
2026-05-05 06:34 48.01655 13.04982 35875 ft 425 kts 261°
2026-05-05 06:34 48.00879 12.96231 35875 ft 425 kts 261°
2026-05-05 06:35 48.00104 12.87496 35872 ft 424 kts 261°
2026-05-05 06:35 47.99321 12.78760 35878 ft 424 kts 260°
2026-05-05 06:36 47.98516 12.70093 35873 ft 424 kts 260°
2026-05-05 06:36 47.97714 12.61384 35867 ft 424 kts 260°
2026-05-05 06:37 47.96917 12.52665 35869 ft 424 kts 260°
2026-05-05 06:37 47.96103 12.43950 35857 ft 424 kts 260°
2026-05-05 06:38 47.95287 12.35237 35858 ft 424 kts 260°
2026-05-05 06:38 47.94468 12.26524 35861 ft 424 kts 260°
2026-05-05 06:39 47.93646 12.17811 35861 ft 424 kts 260°
2026-05-05 06:39 47.92804 12.09111 35861 ft 424 kts 259°
2026-05-05 06:40 47.91962 12.00411 35862 ft 424 kts 260°
2026-05-05 06:40 47.91098 11.91764 35882 ft 424 kts 259°
2026-05-05 06:41 47.90236 11.83066 35888 ft 424 kts 259°
2026-05-05 06:41 47.89377 11.74373 35885 ft 424 kts 259°
2026-05-05 06:42 47.88505 11.65691 35886 ft 424 kts 259°
2026-05-05 06:42 47.87639 11.57013 35883 ft 423 kts 259°
2026-05-05 06:43 47.86765 11.48329 35886 ft 423 kts 259°
2026-05-05 06:43 47.85876 11.39718 35895 ft 423 kts 259°
2026-05-05 06:44 47.84998 11.31065 35896 ft 422 kts 259°
2026-05-05 06:44 47.84089 11.22449 35906 ft 421 kts 259°
2026-05-05 06:45 47.83188 11.13834 35908 ft 421 kts 259°
2026-05-05 06:45 47.82285 11.05236 35911 ft 420 kts 258°
2026-05-05 06:46 47.81370 10.96649 35928 ft 420 kts 258°
2026-05-05 06:46 47.80446 10.88071 35888 ft 420 kts 258°
2026-05-05 06:47 47.79519 10.79508 35881 ft 419 kts 258°
2026-05-05 06:47 47.78590 10.70948 35877 ft 419 kts 258°
2026-05-05 06:48 47.77642 10.62391 35875 ft 419 kts 258°
2026-05-05 06:48 47.76692 10.53855 35882 ft 419 kts 258°
2026-05-05 06:49 47.75740 10.45356 35872 ft 419 kts 258°
2026-05-05 06:49 47.74780 10.36815 35872 ft 419 kts 258°
2026-05-05 06:50 47.74414 10.28132 35872 ft 422 kts 265°
2026-05-05 06:50 47.74237 10.19409 35871 ft 422 kts 265°
2026-05-05 06:51 47.74041 10.10710 35882 ft 422 kts 264°
2026-05-05 06:51 47.73817 10.01977 35881 ft 422 kts 264°
2026-05-05 06:52 47.73595 9.93253 35885 ft 422 kts 264°
2026-05-05 06:52 47.73374 9.84534 35894 ft 422 kts 264°
2026-05-05 06:53 47.73144 9.75825 35902 ft 422 kts 264°
2026-05-05 06:53 47.72917 9.67088 35913 ft 423 kts 264°
2026-05-05 06:54 47.72677 9.58407 35914 ft 423 kts 264°
2026-05-05 06:54 47.72432 9.49665 35912 ft 423 kts 263°
2026-05-05 06:55 47.72166 9.40920 35910 ft 424 kts 264°
2026-05-05 06:55 47.71934 9.32180 35888 ft 424 kts 264°
2026-05-05 06:56 47.71701 9.23438 35893 ft 424 kts 263°
2026-05-05 06:56 47.71426 9.14680 35883 ft 425 kts 263°
2026-05-05 06:57 47.71150 9.05911 35874 ft 425 kts 263°
2026-05-05 06:57 47.70866 8.97149 35870 ft 425 kts 263°
2026-05-05 06:58 47.70564 8.88401 35876 ft 425 kts 263°
2026-05-05 06:58 47.70263 8.79632 35892 ft 426 kts 263°
2026-05-05 06:59 47.69949 8.70839 35884 ft 427 kts 263°
2026-05-05 06:59 47.69626 8.62034 35884 ft 427 kts 263°
2026-05-05 07:00 47.69312 8.53213 35881 ft 428 kts 263°
2026-05-05 07:00 47.68414 8.44571 35883 ft 421 kts 248°
2026-05-05 07:01 47.65746 8.36999 35893 ft 414 kts 232°
2026-05-05 07:01 47.62361 8.30072 35885 ft 415 kts 232°
2026-05-05 07:02 47.59011 8.23166 35886 ft 415 kts 232°
2026-05-05 07:02 47.55626 8.16230 35886 ft 415 kts 232°
2026-05-05 07:03 47.52817 8.10467 35890 ft 416 kts 232°
2026-05-05 07:03 47.49406 8.03480 35893 ft 416 kts 231°
2026-05-05 07:04 47.46022 7.96549 35904 ft 415 kts 231°
2026-05-05 07:04 47.42639 7.89699 35905 ft 415 kts 231°
2026-05-05 07:05 47.39245 7.82806 35903 ft 415 kts 231°
2026-05-05 07:05 47.35852 7.75919 35908 ft 415 kts 231°
2026-05-05 07:06 47.32442 7.69038 35900 ft 415 kts 231°
2026-05-05 07:06 47.29028 7.62165 35902 ft 416 kts 231°
2026-05-05 07:07 47.25612 7.55270 35906 ft 416 kts 231°
2026-05-05 07:07 47.22192 7.48453 35912 ft 416 kts 231°
2026-05-05 07:08 47.18759 7.41589 35928 ft 416 kts 231°
2026-05-05 07:08 47.15294 7.34774 35925 ft 415 kts 228°
2026-05-05 07:09 47.11696 7.28178 35922 ft 415 kts 228°
2026-05-05 07:09 47.08084 7.21552 35923 ft 415 kts 229°
2026-05-05 07:10 47.04487 7.14919 35923 ft 415 kts 229°
2026-05-05 07:10 47.00869 7.08315 35919 ft 415 kts 228°
2026-05-05 07:11 46.97254 7.01713 35920 ft 415 kts 228°
2026-05-05 07:11 46.93642 6.95115 35935 ft 415 kts 228°
2026-05-05 07:12 46.90041 6.88579 35926 ft 415 kts 228°
2026-05-05 07:12 46.86406 6.81996 35923 ft 416 kts 228°
2026-05-05 07:13 46.82768 6.75428 35923 ft 416 kts 228°
2026-05-05 07:13 46.79126 6.68869 35924 ft 416 kts 228°
2026-05-05 07:14 46.75487 6.62313 35914 ft 416 kts 228°
2026-05-05 07:14 46.71839 6.55758 35920 ft 416 kts 228°
2026-05-05 07:15 46.68172 6.49209 35945 ft 416 kts 228°
2026-05-05 07:15 46.64510 6.42671 35937 ft 417 kts 228°
2026-05-05 07:16 46.60845 6.36145 35931 ft 416 kts 228°
2026-05-05 07:16 46.57176 6.29627 35917 ft 416 kts 228°
2026-05-05 07:17 46.53499 6.23127 35920 ft 416 kts 228°
2026-05-05 07:17 46.49850 6.16651 35922 ft 417 kts 228°
2026-05-05 07:18 46.46170 6.10148 35913 ft 416 kts 228°
2026-05-05 07:18 46.42482 6.03668 35913 ft 417 kts 228°
2026-05-05 07:19 46.38793 5.97197 35932 ft 417 kts 228°
2026-05-05 07:19 46.35089 5.90716 35924 ft 418 kts 228°
2026-05-05 07:20 46.31383 5.84232 35920 ft 418 kts 228°
2026-05-05 07:20 46.27674 5.77760 35916 ft 418 kts 228°
2026-05-05 07:21 46.23962 5.71295 35909 ft 418 kts 228°
2026-05-05 07:21 46.20235 5.64853 35903 ft 418 kts 228°
2026-05-05 07:22 46.16515 5.58403 35905 ft 418 kts 228°
2026-05-05 07:22 46.13013 5.51778 35909 ft 420 kts 233°
2026-05-05 07:23 46.09703 5.44829 35911 ft 420 kts 233°
2026-05-05 07:23 46.06386 5.37897 35897 ft 420 kts 233°
2026-05-05 07:24 46.03053 5.30981 35902 ft 420 kts 233°
2026-05-05 07:24 45.99706 5.24069 35910 ft 420 kts 233°
2026-05-05 07:25 45.96377 5.17168 35914 ft 420 kts 233°
2026-05-05 07:25 45.93037 5.10298 35924 ft 419 kts 232°
2026-05-05 07:26 45.89689 5.03417 35903 ft 421 kts 233°
2026-05-05 07:26 45.86329 4.96531 35882 ft 422 kts 232°
2026-05-05 07:27 45.82962 4.89637 35890 ft 422 kts 233°
2026-05-05 07:27 45.79594 4.82759 35906 ft 422 kts 233°
2026-05-05 07:28 45.76242 4.75928 35907 ft 422 kts 232°
2026-05-05 07:28 45.72857 4.69069 35933 ft 422 kts 232°
2026-05-05 07:29 45.69464 4.62187 35909 ft 422 kts 232°
2026-05-05 07:29 45.66075 4.55334 35905 ft 421 kts 232°
2026-05-05 07:30 45.62715 4.48545 35902 ft 421 kts 232°
2026-05-05 07:30 45.57630 4.38314 35906 ft 421 kts 232°
2026-05-05 07:31 45.54232 4.31511 35906 ft 421 kts 232°
2026-05-05 07:31 45.50841 4.24718 35924 ft 421 kts 232°
2026-05-05 07:32 45.47434 4.17935 35913 ft 421 kts 232°
2026-05-05 07:32 45.44018 4.11156 35909 ft 421 kts 232°
2026-05-05 07:33 45.40615 4.04374 35904 ft 421 kts 232°
2026-05-05 07:33 45.37221 3.97643 35907 ft 421 kts 232°
2026-05-05 07:34 45.33789 3.90879 35914 ft 421 kts 232°
2026-05-05 07:34 45.30366 3.84130 35937 ft 421 kts 232°
2026-05-05 07:35 45.26941 3.77401 35932 ft 421 kts 232°
2026-05-05 07:35 45.23551 3.70626 35913 ft 421 kts 233°
2026-05-05 07:36 45.20203 3.63804 35910 ft 421 kts 233°
2026-05-05 07:36 45.16851 3.56999 35915 ft 421 kts 233°
2026-05-05 07:37 45.13508 3.50247 35908 ft 421 kts 233°
2026-05-05 07:37 45.10139 3.43455 35917 ft 420 kts 233°
2026-05-05 07:38 45.06780 3.36697 35926 ft 420 kts 233°
2026-05-05 07:38 45.03421 3.29937 35931 ft 420 kts 233°
2026-05-05 07:39 45.00050 3.23197 35925 ft 420 kts 233°
2026-05-05 07:39 44.96683 3.16455 35925 ft 419 kts 233°
2026-05-05 07:40 44.93314 3.09736 35933 ft 419 kts 233°
2026-05-05 07:40 44.89939 3.03039 35962 ft 418 kts 233°
2026-05-05 07:41 44.86567 2.96348 35951 ft 418 kts 233°
2026-05-05 07:41 44.83284 2.89617 35941 ft 419 kts 236°
2026-05-05 07:42 44.80135 2.82702 35943 ft 419 kts 235°
2026-05-05 07:42 44.76954 2.75801 35952 ft 419 kts 235°
2026-05-05 07:43 44.73778 2.68920 35944 ft 419 kts 235°
2026-05-05 07:43 44.70583 2.62039 35972 ft 420 kts 235°
2026-05-05 07:44 44.67414 2.55207 35946 ft 420 kts 235°
2026-05-05 07:44 44.64213 2.48338 35956 ft 420 kts 235°
2026-05-05 07:45 44.61004 2.41471 35960 ft 420 kts 235°
2026-05-05 07:45 44.57800 2.34604 35957 ft 420 kts 235°
2026-05-05 07:46 44.54589 2.27754 35993 ft 420 kts 235°
2026-05-05 07:46 44.51367 2.20922 35965 ft 420 kts 235°
2026-05-05 07:47 44.48145 2.14079 35955 ft 421 kts 235°
2026-05-05 07:47 44.44942 2.07284 35949 ft 421 kts 235°
2026-05-05 07:48 44.41701 2.00450 35955 ft 421 kts 235°
2026-05-05 07:48 44.38455 1.93618 35951 ft 421 kts 235°
2026-05-05 07:49 44.35213 1.86811 35989 ft 421 kts 235°
2026-05-05 07:49 44.32514 1.81156 35982 ft 420 kts 235°
2026-05-05 07:50 44.29263 1.74359 35973 ft 420 kts 236°
2026-05-05 07:50 44.26115 1.67460 35975 ft 421 kts 236°
2026-05-05 07:51 44.22964 1.60590 35975 ft 421 kts 236°
2026-05-05 07:51 44.19800 1.53730 35974 ft 420 kts 236°
2026-05-05 07:52 44.16638 1.46874 35993 ft 421 kts 236°
2026-05-05 07:52 44.13479 1.40066 35990 ft 421 kts 236°
2026-05-05 07:53 44.10294 1.33214 35985 ft 421 kts 236°
2026-05-05 07:53 44.07119 1.26365 35986 ft 422 kts 236°
2026-05-05 07:54 44.03917 1.19502 35986 ft 422 kts 236°
2026-05-05 07:54 44.00724 1.12671 35998 ft 421 kts 236°
2026-05-05 07:55 43.97545 1.05899 35999 ft 421 kts 236°
2026-05-05 07:55 43.94347 0.99079 35997 ft 421 kts 236°
2026-05-05 07:56 43.91144 0.92272 35996 ft 421 kts 236°
2026-05-05 07:56 43.87958 0.85445 35993 ft 421 kts 239°
2026-05-05 07:57 43.85000 0.78446 35994 ft 421 kts 238°
2026-05-05 07:57 43.82022 0.71505 35996 ft 421 kts 238°
2026-05-05 07:58 43.79018 0.64555 35996 ft 420 kts 238°
2026-05-05 07:58 43.76018 0.57627 35994 ft 420 kts 238°
2026-05-05 07:59 43.73014 0.50705 35992 ft 419 kts 238°
2026-05-05 07:59 43.70003 0.43796 35994 ft 419 kts 238°
2026-05-05 08:00 43.67000 0.36876 36012 ft 419 kts 238°
2026-05-05 08:00 43.63986 0.29990 35998 ft 419 kts 238°
2026-05-05 08:01 43.60972 0.23100 35992 ft 419 kts 238°
2026-05-05 08:01 43.57960 0.16221 35999 ft 418 kts 238°
2026-05-05 08:02 43.54962 0.09411 36003 ft 418 kts 238°
2026-05-05 08:02 43.51937 0.02571 36003 ft 418 kts 238°
2026-05-05 08:03 43.48918 -0.04273 36018 ft 418 kts 238°
2026-05-05 08:03 43.45871 -0.11156 36011 ft 419 kts 238°
2026-05-05 08:04 43.42856 -0.17956 35991 ft 419 kts 238°
2026-05-05 08:04 43.39805 -0.24786 36005 ft 418 kts 238°
2026-05-05 08:05 43.36771 -0.31597 36019 ft 417 kts 238°
2026-05-05 08:05 43.33728 -0.38390 36021 ft 417 kts 238°
2026-05-05 08:06 43.30692 -0.45169 36020 ft 417 kts 238°
2026-05-05 08:06 43.27652 -0.51942 36019 ft 416 kts 238°
2026-05-05 08:07 43.24613 -0.58706 36017 ft 416 kts 238°
2026-05-05 08:07 43.21582 -0.65420 36005 ft 416 kts 238°
2026-05-05 08:08 43.18535 -0.72150 36015 ft 415 kts 238°
2026-05-05 08:08 43.15493 -0.78860 36027 ft 414 kts 238°
2026-05-05 08:09 43.12455 -0.85560 36014 ft 415 kts 238°
2026-05-05 08:09 43.09399 -0.92255 36007 ft 415 kts 238°
2026-05-05 08:10 43.06361 -0.98923 36000 ft 415 kts 238°
2026-05-05 08:10 43.03301 -1.05600 35999 ft 415 kts 238°
2026-05-05 08:11 43.00231 -1.12289 35984 ft 414 kts 238°
2026-05-05 08:11 42.97164 -1.18952 36013 ft 414 kts 238°
2026-05-05 08:12 42.94106 -1.25615 36009 ft 414 kts 238°
2026-05-05 08:12 42.91036 -1.32253 36010 ft 414 kts 238°
2026-05-05 08:13 42.87983 -1.38851 36004 ft 414 kts 238°
2026-05-05 08:13 42.84905 -1.45483 36002 ft 413 kts 238°
2026-05-05 08:14 42.81824 -1.52104 36004 ft 413 kts 238°
2026-05-05 08:14 42.78741 -1.58702 36005 ft 414 kts 238°
2026-05-05 08:15 42.75644 -1.65311 35995 ft 414 kts 238°
2026-05-05 08:15 42.72934 -1.72187 35986 ft 415 kts 250°
2026-05-05 08:16 42.71244 -1.79700 35987 ft 416 kts 252°
2026-05-05 08:16 42.69544 -1.87195 35989 ft 416 kts 252°
2026-05-05 08:17 42.67884 -1.94522 35999 ft 417 kts 252°
2026-05-05 08:17 42.66181 -2.02058 35991 ft 417 kts 252°
2026-05-05 08:18 42.64466 -2.09579 35994 ft 417 kts 252°
2026-05-05 08:18 42.62740 -2.17103 36002 ft 418 kts 251°
2026-05-05 08:19 42.60929 -2.24548 36011 ft 418 kts 251°
2026-05-05 08:19 42.59113 -2.32047 36019 ft 418 kts 251°
2026-05-05 08:20 42.57289 -2.39548 36012 ft 419 kts 251°
2026-05-05 08:20 42.55456 -2.47057 36013 ft 419 kts 251°
2026-05-05 08:21 42.53605 -2.54563 36013 ft 419 kts 251°
2026-05-05 08:21 42.51758 -2.62066 36012 ft 419 kts 251°
2026-05-05 08:22 42.49926 -2.69520 36018 ft 419 kts 251°
2026-05-05 08:22 42.48075 -2.77023 36006 ft 420 kts 251°
2026-05-05 08:23 42.46210 -2.84520 35995 ft 420 kts 251°
2026-05-05 08:23 42.44054 -2.91860 36001 ft 420 kts 245°
2026-05-05 08:24 42.41607 -2.99041 36005 ft 420 kts 245°
2026-05-05 08:24 42.39160 -3.06222 36013 ft 420 kts 245°
2026-05-05 08:25 42.36692 -3.13404 36007 ft 421 kts 245°
2026-05-05 08:25 42.34237 -3.20585 36003 ft 421 kts 245°
2026-05-05 08:26 42.31776 -3.27775 36022 ft 421 kts 245°
2026-05-05 08:26 42.29326 -3.34890 36028 ft 420 kts 245°
2026-05-05 08:27 42.26853 -3.42042 36031 ft 420 kts 245°
2026-05-05 08:27 42.24375 -3.49195 36035 ft 421 kts 245°
2026-05-05 08:28 42.21902 -3.56351 36024 ft 421 kts 245°
2026-05-05 08:28 42.19408 -3.63504 36022 ft 422 kts 245°
2026-05-05 08:29 42.16916 -3.70668 36020 ft 422 kts 245°
2026-05-05 08:30 42.13156 -3.81398 36010 ft 422 kts 245°
2026-05-05 08:30 42.10648 -3.88546 36020 ft 422 kts 245°
2026-05-05 08:31 42.08151 -3.95641 36024 ft 422 kts 245°
2026-05-05 08:31 42.05633 -4.02780 36023 ft 422 kts 245°
2026-05-05 08:32 42.03111 -4.09921 36026 ft 422 kts 245°
2026-05-05 08:32 42.00770 -4.17162 36027 ft 422 kts 248°
2026-05-05 08:33 41.98480 -4.24415 36028 ft 422 kts 247°
2026-05-05 08:33 41.96175 -4.31666 36029 ft 422 kts 248°
2026-05-05 08:34 41.93871 -4.38919 36029 ft 422 kts 248°
2026-05-05 08:34 41.91554 -4.46165 36028 ft 422 kts 247°
2026-05-05 08:35 41.89224 -4.53409 36012 ft 422 kts 247°
2026-05-05 08:35 41.86899 -4.60639 36029 ft 422 kts 248°
2026-05-05 08:36 41.84588 -4.67826 36037 ft 421 kts 248°
2026-05-05 08:36 41.82259 -4.75036 36034 ft 421 kts 248°
2026-05-05 08:37 41.79926 -4.82238 36033 ft 421 kts 247°
2026-05-05 08:37 41.77587 -4.89442 36033 ft 421 kts 248°
2026-05-05 08:38 41.75643 -4.95413 36033 ft 421 kts 247°
2026-05-05 08:38 41.73298 -5.02608 36028 ft 422 kts 248°
2026-05-05 08:39 41.70940 -5.09796 36028 ft 422 kts 247°
2026-05-05 08:39 41.68584 -5.16990 36029 ft 422 kts 248°
2026-05-05 08:40 41.66223 -5.24192 36031 ft 422 kts 247°
2026-05-05 08:40 41.63865 -5.31325 36028 ft 422 kts 248°
2026-05-05 08:41 41.61503 -5.38495 36046 ft 421 kts 248°
2026-05-05 08:41 41.59125 -5.45655 36049 ft 421 kts 248°
2026-05-05 08:42 41.56750 -5.52798 36049 ft 421 kts 247°
2026-05-05 08:42 41.54362 -5.59935 36048 ft 421 kts 247°
2026-05-05 08:43 41.52761 -5.67372 36047 ft 419 kts 264°
2026-05-05 08:43 41.52221 -5.75130 36045 ft 419 kts 265°
2026-05-05 08:44 41.51668 -5.82877 36047 ft 419 kts 265°
2026-05-05 08:44 41.51101 -5.90625 36047 ft 419 kts 265°
2026-05-05 08:45 41.50537 -5.98364 36051 ft 419 kts 264°
2026-05-05 08:45 41.49964 -6.06103 36051 ft 419 kts 264°
2026-05-05 08:46 41.49380 -6.13849 36053 ft 420 kts 265°
2026-05-05 08:46 41.48790 -6.21547 36050 ft 420 kts 265°
2026-05-05 08:47 41.48081 -6.29287 36057 ft 421 kts 258°
2026-05-05 08:47 41.46703 -6.36874 35733 ft 421 kts 258°
2026-05-05 08:47 41.46015 -6.40667 35046 ft 421 kts 258°
2026-05-05 08:48 41.45324 -6.44462 34371 ft 421 kts 258°
2026-05-05 08:48 41.44632 -6.48250 33618 ft 421 kts 258°
2026-05-05 08:48 41.43938 -6.52042 32769 ft 422 kts 258°
2026-05-05 08:48 41.43246 -6.55853 31909 ft 423 kts 258°
2026-05-05 08:49 41.42544 -6.59679 31045 ft 424 kts 258°
2026-05-05 08:49 41.41844 -6.63506 30187 ft 426 kts 258°
2026-05-05 08:49 41.41137 -6.67342 29137 ft 427 kts 258°
2026-05-05 08:49 41.40443 -6.71112 28424 ft 422 kts 258°
2026-05-05 08:50 41.39746 -6.74882 27691 ft 416 kts 258°
2026-05-05 08:50 41.39057 -6.78610 26970 ft 412 kts 258°
2026-05-05 08:50 41.38377 -6.82289 26294 ft 407 kts 258°
2026-05-05 08:50 41.37697 -6.85935 25611 ft 403 kts 258°
2026-05-05 08:51 41.37024 -6.89539 24933 ft 400 kts 258°
2026-05-05 08:51 41.36356 -6.93121 24282 ft 396 kts 258°
2026-05-05 08:51 41.35700 -6.96671 23648 ft 393 kts 258°
2026-05-05 08:51 41.35049 -7.00189 22925 ft 390 kts 258°
2026-05-05 08:52 41.34398 -7.03672 22230 ft 386 kts 258°
2026-05-05 08:52 41.33743 -7.07127 21596 ft 382 kts 258°
2026-05-05 08:52 41.33096 -7.10547 20939 ft 379 kts 258°
2026-05-05 08:52 41.32460 -7.13941 20296 ft 377 kts 258°
2026-05-05 08:53 41.31826 -7.17311 19664 ft 375 kts 258°
2026-05-05 08:53 41.31201 -7.20614 19067 ft 373 kts 258°
2026-05-05 08:53 41.30571 -7.23961 18470 ft 371 kts 259°
2026-05-05 08:53 41.29948 -7.27280 17858 ft 369 kts 259°
2026-05-05 08:54 41.29325 -7.30577 17235 ft 366 kts 258°
2026-05-05 08:54 41.28698 -7.33855 16660 ft 364 kts 258°
2026-05-05 08:54 41.28074 -7.37099 16121 ft 361 kts 258°
2026-05-05 08:54 41.27461 -7.40320 15578 ft 358 kts 258°
2026-05-05 08:55 41.26847 -7.43525 15041 ft 356 kts 258°
2026-05-05 08:55 41.26237 -7.46705 14523 ft 354 kts 258°
2026-05-05 08:55 41.25631 -7.49861 14004 ft 352 kts 258°
2026-05-05 08:55 41.25030 -7.52996 13453 ft 349 kts 258°
2026-05-05 08:56 41.24435 -7.56114 12871 ft 347 kts 258°
2026-05-05 08:56 41.23838 -7.59204 12288 ft 344 kts 258°
2026-05-05 08:56 41.23241 -7.62277 11770 ft 341 kts 259°
2026-05-05 08:56 41.22667 -7.65236 11623 ft 327 kts 259°
2026-05-05 08:57 41.22066 -7.68087 11489 ft 315 kts 256°
2026-05-05 08:57 41.21388 -7.70796 11359 ft 303 kts 255°
2026-05-05 08:57 41.20723 -7.73438 11222 ft 292 kts 256°
2026-05-05 08:57 41.20089 -7.75971 11148 ft 287 kts 255°
2026-05-05 08:58 41.19471 -7.78447 11122 ft 285 kts 256°
2026-05-05 08:58 41.18843 -7.80947 11101 ft 285 kts 256°
2026-05-05 08:58 41.18213 -7.83445 11094 ft 285 kts 255°
2026-05-05 08:58 41.17587 -7.85937 11088 ft 285 kts 255°
2026-05-05 08:59 41.16960 -7.88426 11092 ft 285 kts 255°
2026-05-05 08:59 41.16332 -7.90921 11003 ft 284 kts 255°
2026-05-05 08:59 41.15707 -7.93410 10897 ft 284 kts 255°
2026-05-05 08:59 41.15088 -7.95887 10800 ft 283 kts 255°
2026-05-05 09:00 41.14467 -7.98370 10701 ft 283 kts 255°
2026-05-05 09:00 41.13840 -8.00839 10607 ft 282 kts 255°
2026-05-05 09:00 41.13213 -8.03313 10504 ft 282 kts 255°
2026-05-05 09:00 41.12592 -8.05775 10318 ft 281 kts 255°
2026-05-05 09:01 41.11975 -8.08204 10023 ft 280 kts 255°
2026-05-05 09:01 41.11356 -8.10651 9704 ft 278 kts 255°
2026-05-05 09:01 41.10742 -8.13075 9377 ft 277 kts 255°
2026-05-05 09:01 41.10122 -8.15491 9063 ft 275 kts 255°
2026-05-05 09:02 41.09511 -8.17888 8752 ft 274 kts 255°
2026-05-05 09:02 41.08907 -8.20271 8441 ft 272 kts 255°
2026-05-05 09:02 41.08304 -8.22640 8129 ft 271 kts 255°
2026-05-05 09:02 41.07703 -8.25004 7826 ft 270 kts 255°
2026-05-05 09:03 41.07103 -8.27358 7516 ft 268 kts 255°
2026-05-05 09:03 41.06514 -8.29659 7221 ft 266 kts 255°
2026-05-05 09:03 41.05916 -8.32009 6918 ft 265 kts 254°
2026-05-05 09:03 41.05334 -8.34277 6626 ft 262 kts 254°
2026-05-05 09:04 41.04744 -8.36573 6311 ft 263 kts 254°
2026-05-05 09:04 41.04159 -8.38854 5994 ft 262 kts 254°
2026-05-05 09:04 41.03576 -8.41133 5684 ft 261 kts 254°
2026-05-05 09:04 41.02990 -8.43405 5374 ft 260 kts 254°
2026-05-05 09:05 41.02409 -8.45670 5066 ft 260 kts 253°
2026-05-05 09:05 41.01831 -8.47935 4748 ft 259 kts 253°
2026-05-05 09:05 41.01254 -8.50176 4439 ft 254 kts 253°
2026-05-05 09:05 41.00684 -8.52374 4113 ft 250 kts 253°
2026-05-05 09:06 41.00131 -8.54495 4010 ft 236 kts 253°
2026-05-05 09:06 40.99620 -8.56476 4000 ft 220 kts 253°
2026-05-05 09:06 40.99201 -8.58394 4003 ft 216 kts 267°
2026-05-05 09:06 40.99470 -8.60310 3890 ft 213 kts 300°
2026-05-05 09:07 41.00512 -8.61655 3690 ft 213 kts 334°
2026-05-05 09:07 41.01935 -8.62168 3499 ft 213 kts 347°
2026-05-05 09:07 41.03382 -8.62531 3294 ft 210 kts 348°
2026-05-05 09:07 41.04804 -8.62898 3096 ft 206 kts 348°
2026-05-05 09:08 41.06184 -8.63261 3013 ft 198 kts 348°
2026-05-05 09:08 41.07518 -8.63607 3015 ft 191 kts 348°
2026-05-05 09:08 41.08794 -8.63936 3009 ft 183 kts 348°
2026-05-05 09:08 41.10021 -8.64255 2946 ft 179 kts 348°
2026-05-05 09:09 41.11241 -8.64576 2643 ft 178 kts 348°
2026-05-05 09:09 41.12432 -8.64888 2415 ft 169 kts 348°
2026-05-05 09:09 41.13533 -8.65175 2198 ft 152 kts 348°
2026-05-05 09:09 41.14528 -8.65433 1992 ft 140 kts 347°
2026-05-05 09:10 41.15475 -8.65678 1811 ft 137 kts 347°
2026-05-05 09:10 41.16400 -8.65918 1637 ft 135 kts 347°
2026-05-05 09:10 41.17342 -8.66166 1479 ft 140 kts 348°
2026-05-05 09:10 41.18298 -8.66426 1252 ft 138 kts 348°
2026-05-05 09:11 41.19233 -8.66676 1045 ft 136 kts 348°
2026-05-05 09:11 41.20149 -8.66919 885 ft 137 kts 349°
2026-05-05 09:11 41.21103 -8.67161 720 ft 142 kts 350°
2026-05-05 09:11 41.22076 -8.67414 544 ft 143 kts 351°
2026-05-05 09:12 41.23033 -8.67663 333 ft 138 kts 351°
2026-05-05 09:12 41.23940 -8.67899 223 ft 121 kts 349°
2026-05-05 09:12 41.24617 -8.68075 204 ft 76 kts 349°
2026-05-05 09:12 41.24982 -8.68173 190 ft 31 kts 349°
2026-05-05 09:13 41.25118 -8.68169 196 ft 20 kts 13°
2026-05-05 09:13 41.25237 -8.68122 181 ft 13 kts 19°
2026-05-05 09:13 41.25292 -8.68069 180 ft 10 kts 74°
2026-05-05 09:13 41.25258 -8.68014 182 ft 8 kts 160°
2026-05-05 09:14 41.25192 -8.67994 196 ft 11 kts 168°
2026-05-05 09:14 41.25102 -8.67972 190 ft 15 kts 169°
2026-05-05 09:14 41.24988 -8.67943 198 ft 18 kts 168°
2026-05-05 09:14 41.24879 -8.67904 202 ft 15 kts 158°
2026-05-05 09:15 41.24797 -8.67844 212 ft 12 kts 152°
2026-05-05 09:15 41.24733 -8.67817 216 ft 8 kts 167°
2026-05-05 09:15 41.24669 -8.67803 211 ft 15 kts 170°
2026-05-05 09:15 41.24545 -8.67771 220 ft 21 kts 169°
2026-05-05 09:16 41.24391 -8.67731 226 ft 22 kts 168°
2026-05-05 09:16 41.24273 -8.67653 233 ft 19 kts 126°
2026-05-05 09:16 41.24174 -8.67568 238 ft 18 kts 168°
2026-05-05 09:16 41.24042 -8.67533 238 ft 21 kts 169°
2026-05-05 09:17 41.23901 -8.67496 238 ft 20 kts 169°
2026-05-05 09:17 41.23778 -8.67463 239 ft 11 kts 163°
2026-05-05 09:17 41.23724 -8.67400 240 ft 9 kts 127°
2026-05-05 09:17 41.23707 -8.67360 242 ft 3 kts 102°
2026-05-05 09:18 41.23711 -8.67340 243 ft 3 kts 68°
2026-05-05 09:18 41.23720 -8.67312 244 ft 2 kts 69°
2026-05-05 09:18 41.23724 -8.67298 245 ft 1 kts 69°
2026-05-05 09:18 41.23729 -8.67281 245 ft 4 kts 69°
2026-05-05 09:19 41.23734 -8.67265 245 ft 0 kts 69°